AL7BX-WX Weather Reports


time (UTC)temp
F
wind
direction
speed
knots
gust
knots
rain 1hr
in
rain 24hr
in
rain mn
in
humidity
%
barometer
mb
20260905212014 82 197 10.4 20.9 0.00 0.00 0.00 27
20260905210903 82 191 11.3 22.6 0.00 0.00 0.00 25
20260905210003 82 182 10.4 24.3 0.00 0.00 0.00 26
20260905205403 82 188 9.6 24.3 0.00 0.00 0.00 26
20260905204714 82 187 8.7 16.5 0.00 0.00 0.00 27
20260905203603 82 289 10.4 20.0 0.00 0.00 0.00 27
20260905202703 81 286 10.4 20.0 0.00 0.00 0.00 27
20260905201803 81 359 12.2 26.1 0.00 0.00 0.00 27
20260905201113 81 345 12.2 25.2 0.00 0.00 0.00 27
20260905200003 81 281 12.2 20.9 0.00 0.00 0.00 27
20260905195403 81 293 11.3 26.9 0.00 0.00 0.00 27
20260905194503 81 292 10.4 20.9 0.00 0.00 0.00 28
20260905193603 80 203 11.3 23.5 0.00 0.00 0.00 27
20260905192914 80 194 10.4 20.9 0.00 0.00 0.00 26
20260905192013 80 195 10.4 24.3 0.00 0.00 0.00 28
20260905190903 79 192 11.3 24.3 0.00 0.00 0.00 27
20260905190003 79 189 11.3 24.3 0.00 0.00 0.00 26
20260905185403 79 187 12.2 26.9 0.00 0.00 0.00 29
20260905184713 78 185 13.0 27.8 0.00 0.00 0.00 29
20260905183603 78 180 11.3 22.6 0.00 0.00 0.00 30
20260905182703 78 180 8.7 19.1 0.00 0.00 0.00 29
20260905181803 78 186 8.7 17.4 0.00 0.00 0.00 30
20260905180903 77 190 10.4 22.6 0.00 0.00 0.00 30
20260905180003 78 183 8.7 18.2 0.00 0.00 0.00 28
20260905175404 77 176 7.8 16.5 0.00 0.00 0.00 30
20260905174503 77 188 10.4 21.7 0.00 0.00 0.00 29
20260905173603 76 185 10.4 20.9 0.00 0.00 0.00 29
20260905172913 76 187 8.7 20.9 0.00 0.00 0.00 29
20260905171803 76 187 10.4 18.2 0.00 0.00 0.00 30
20260905170903 76 186 9.6 20.0 0.00 0.00 0.00 32
20260905170003 75 185 8.7 19.1 0.00 0.00 0.00 32
20260905165403 75 189 7.8 17.4 0.00 0.00 0.00 32
20260905164503 75 178 8.7 17.4 0.00 0.00 0.00 31
20260905163814 75 179 7.8 14.8 0.00 0.00 0.00 32
20260905162913 74 177 5.2 13.0 0.00 0.00 0.00 32
20260905161803 74 176 7.0 14.8 0.00 0.00 0.00 31
20260905160903 72 187 6.1 11.3 0.00 0.00 0.00 31
20260905160003 71 183 6.1 12.2 0.00 0.00 0.00 31
20260905155403 70 170 5.2 12.2 0.00 0.00 0.00 34
20260905154503 68 184 4.3 11.3 0.00 0.00 0.00 32
20260905153603 68 185 4.3 9.6 0.00 0.00 0.00 30
20260905152703 68 193 4.3 9.6 0.00 0.00 0.00 31
20260905151803 68 189 3.5 8.7 0.00 0.00 0.00 31
20260905150903 66 183 0.9 4.3 0.00 0.00 0.00 35
20260905150003 63 198 0.0 0.9 0.00 0.00 0.00 42
20260905145403 61 198 0.0 1.7 0.00 0.00 0.00 43
20260905144503 59 198 0.0 0.9 0.00 0.00 0.00 47
20260905143603 58 198 0.0 0.9 0.00 0.00 0.00 44
20260905142703 59 198 0.0 1.7 0.00 0.00 0.00 43
20260905141803 58 193 1.7 4.3 0.00 0.00 0.00 39
20260905140903 57 188 0.9 3.5 0.00 0.00 0.00 39
20260905140004 56 188 0.0 1.7 0.00 0.00 0.00 40
20260905135403 56 188 0.0 2.6 0.00 0.00 0.00 41
20260905134504 56 188 0.9 2.6 0.00 0.00 0.00 41
20260905133603 57 188 0.9 2.6 0.00 0.00 0.00 39
20260905132703 57 188 1.7 3.5 0.00 0.00 0.00 38
20260905131803 57 189 0.9 2.6 0.00 0.00 0.00 39
20260905131112 57 190 0.9 3.5 0.00 0.00 0.00 38
20260905130003 58 182 1.7 3.5 0.00 0.00 0.00 37
20260905125613 58 182 1.7 4.3 0.00 0.00 0.00 37
20260905124503 58 183 1.7 3.5 0.00 0.00 0.00 37
20260905123603 58 183 1.7 3.5 0.00 0.00 0.00 38
20260905122913 58 183 0.9 3.5 0.00 0.00 0.00 38
20260905121803 59 182 1.7 4.3 0.00 0.00 0.00 39
20260905120903 59 184 2.6 5.2 0.00 0.00 0.00 38
20260905120004 60 184 1.7 4.3 0.00 0.00 0.00 38
20260905115403 60 181 1.7 3.5 0.00 0.00 0.00 38
20260905114503 61 180 0.9 2.6 0.00 0.00 0.00 38
20260905113603 61 201 1.7 3.5 0.00 0.00 0.00 37
20260905112703 61 222 1.7 4.3 0.00 0.00 0.00 38
20260905111803 62 213 1.7 5.2 0.00 0.00 0.00 37
20260905110903 62 229 1.7 5.2 0.00 0.00 0.00 37
20260905110003 62 236 1.7 4.3 0.00 0.00 0.00 36
20260905105403 62 232 1.7 4.3 0.00 0.00 0.00 36
20260905104503 62 217 0.9 3.5 0.00 0.00 0.00 36
20260905103603 62 228 0.9 4.3 0.00 0.00 0.00 36
20260905102912 62 241 1.7 4.3 0.00 0.00 0.00 36
20260905101803 62 253 2.6 5.2 0.00 0.00 0.00 36
20260905100903 63 248 2.6 8.7 0.00 0.00 0.00 35
20260905100003 63 240 2.6 8.7 0.00 0.00 0.00 34
20260905095403 64 223 1.7 7.8 0.00 0.00 0.00 34
20260905094503 64 233 1.7 10.4 0.00 0.00 0.00 34
20260905093603 65 214 2.6 8.7 0.00 0.00 0.00 33
20260905092703 65 205 3.5 8.7 0.00 0.00 0.00 33
20260905091803 65 202 3.5 8.7 0.00 0.00 0.00 33
20260905090903 66 196 3.5 6.1 0.00 0.00 0.00 32
20260905090214 66 189 3.5 7.8 0.00 0.00 0.00 31
20260905085403 66 194 3.5 8.7 0.00 0.00 0.00 31
20260905084713 66 196 4.3 9.6 0.00 0.00 0.00 31
20260905083603 66 191 3.5 9.6 0.00 0.00 0.00 31
20260905082703 66 199 3.5 9.6 0.00 0.00 0.00 31
20260905081803 66 202 3.5 7.8 0.00 0.00 0.00 30
20260905080903 66 203 3.5 7.8 0.00 0.00 0.00 30
20260905080003 66 199 3.5 7.0 0.00 0.00 0.00 30
20260905075403 67 196 3.5 6.1 0.00 0.00 0.00 29
20260905074503 68 188 5.2 9.6 0.00 0.00 0.00 28
20260905073603 68 185 5.2 13.9 0.00 0.00 0.00 27
20260905072703 69 182 5.2 12.2 0.00 0.00 0.00 26
20260905071803 69 170 5.2 12.2 0.00 0.00 0.00 26
20260905070903 69 170 6.1 12.2 0.00 0.00 0.00 26
20260905070003 69 171 5.2 11.3 0.00 0.00 0.00 26
20260905065403 69 171 5.2 10.4 0.00 0.00 0.00 26
20260905064712 70 168 6.1 13.9 0.00 0.00 0.00 26
20260905063603 70 165 5.2 13.0 0.00 0.00 0.00 26
20260905062703 70 174 5.2 12.2 0.00 0.00 0.00 26
20260905061803 70 170 6.1 13.9 0.00 0.00 0.00 26
20260905060903 71 174 6.1 13.9 0.00 0.00 0.00 26
20260905060008 71 171 6.1 12.2 0.00 0.00 0.00 26
20260905055403 71 171 5.2 13.0 0.00 0.00 0.00 26
20260905054503 71 171 6.1 16.5 0.00 0.00 0.00 26
20260905053813 71 175 6.1 15.6 0.00 0.00 0.00 27
20260905052703 70 166 5.2 10.4 0.00 0.00 0.00 27
20260905051803 70 172 5.2 11.3 0.00 0.00 0.00 28
20260905050903 70 168 5.2 10.4 0.00 0.00 0.00 28
20260905050004 71 162 5.2 10.4 0.00 0.00 0.00 28
20260905045403 71 160 4.3 9.6 0.00 0.00 0.00 28
20260905044503 71 158 5.2 10.4 0.00 0.00 0.00 28
20260905043603 71 158 4.3 11.3 0.00 0.00 0.00 28
20260905042703 72 148 4.3 11.3 0.00 0.00 0.00 28
20260905041803 72 143 4.3 10.4 0.00 0.00 0.00 29
20260905041113 71 148 3.5 8.7 0.00 0.00 0.00 30
20260905040212 70 148 2.6 6.1 0.00 0.00 0.00 31
20260905035403 70 175 1.7 5.2 0.00 0.00 0.00 31
20260905034503 71 142 2.6 5.2 0.00 0.00 0.00 32
20260905033603 71 146 1.7 4.3 0.00 0.00 0.00 32
20260905032703 72 151 2.6 8.7 0.00 0.00 0.00 31
20260905031803 72 170 4.3 10.4 0.00 0.00 0.00 31
20260905030903 72 175 3.5 9.6 0.00 0.00 0.00 31
20260905030214 72 181 4.3 11.3 0.00 0.00 0.00 31
20260905025614 72 188 5.2 11.3 0.00 0.00 0.00 31
20260905024503 72 202 3.5 11.3 0.00 0.00 0.00 31
20260905023814 72 205 4.3 8.7 0.00 0.00 0.00 31
20260905022703 73 189 5.2 11.3 0.00 0.00 0.00 30
20260905022013 73 192 5.2 11.3 0.00 0.00 0.00 30
20260905020903 74 191 6.1 14.8 0.00 0.00 0.00 30
20260905020003 74 194 6.1 14.8 0.00 0.00 0.00 30
20260905015403 75 191 6.1 16.5 0.00 0.00 0.00 30
20260905014503 76 189 7.0 16.5 0.00 0.00 0.00 29
20260905013603 77 188 7.8 18.2 0.00 0.00 0.00 28
20260905012703 77 187 7.8 19.1 0.00 0.00 0.00 29
20260905011803 77 189 8.7 17.4 0.00 0.00 0.00 29
20260905010903 78 186 7.8 19.1 0.00 0.00 0.00 28
20260905010003 79 186 8.7 19.1 0.00 0.00 0.00 27
20260905005613 79 188 8.7 17.4 0.00 0.00 0.00 27
20260905004503 79 183 9.6 18.2 0.00 0.00 0.00 27
20260905003603 80 182 7.8 20.0 0.00 0.00 0.00 28
20260905002913 80 187 8.7 17.4 0.00 0.00 0.00 28
20260905001803 80 186 8.7 17.4 0.00 0.00 0.00 28
20260905000903 80 193 7.8 22.6 0.00 0.00 0.00 28
20260905000004 81 194 8.7 19.1 0.00 0.00 0.00 29
20260904235403 81 192 9.6 19.1 0.00 0.00 0.00 28
20260904234503 81 192 8.7 16.5 0.00 0.00 0.00 29
20260904233603 81 186 9.6 20.0 0.00 0.00 0.00 29
20260904232703 82 182 9.6 19.1 0.00 0.00 0.00 28
20260904231803 82 176 7.8 16.5 0.00 0.00 0.00 29
20260904231113 82 190 8.7 21.7 0.00 0.00 0.00 28
20260904230003 83 160 7.8 16.5 0.00 0.00 0.00 27
20260904225403 83 174 7.8 16.5 0.00 0.00 0.00 28
20260904224503 82 149 8.7 19.1 0.00 0.00 0.00 27
20260904223603 83 162 9.6 20.9 0.00 0.00 0.00 26
20260904222703 83 173 11.3 22.6 0.00 0.00 0.00 26
20260904222014 82 187 11.3 22.6 0.00 0.00 0.00 26
20260904220903 83 171 9.6 16.5 0.00 0.00 0.00 28
20260904220003 83 175 9.6 16.5 0.00 0.00 0.00 26
20260904215403 83 165 9.6 16.5 0.00 0.00 0.00 28
20260904214503 83 165 11.3 22.6 0.00 0.00 0.00 26
20260904213603 82 174 12.2 26.1 0.00 0.00 0.00 27
20260904212703 82 176 11.3 23.5 0.00 0.00 0.00 28